Regional Weather Roundup
Issued by NWS

Home | Current Version | Previous Version | Graphics & Text | Print | Product List | Glossary On
Versions: 1 2 3 4 5 6 7 8 9 10 11 12 13 14 15 16 17 18 19 20 21 22 23 24 25 26 27 28 29 30 31 32 33 34 35 36 37 38 39 40 41 42 43 44 45 46 47 48 49 50
000
ASUS45 KABQ 210910
RWRNM
WEATHER ROUNDUP FOR NEW MEXICO
NATIONAL WEATHER SERVICE ALBUQUERQUE NM
300 AM MDT SUN SEP 21 2014

NOTE: "FAIR" MEANS FEW OR NO CLOUDS BELOW 12,000 FEET AGL WITH NO
       SIGNIFICANT WEATHER OR OBSTRUCTIONS TO VISION.

      THIS PRODUCT IS RELEASED AS TWO VERSIONS.  ONE VERSION NEAR
      THE TOP OF THE HOUR CONTAINING PRELIMINARY DATA FROM ALBUQUERQUE
      AND OTHER STATIONS.  A FINAL VERSION WITH ADDITIONAL DATA IS
      ISSUED ABOUT 10 MINUTES AFTER THE HOUR.

NMZ501-503-504-510>518-211000-
NORTHWEST PLATEAU/NORTHCENTRAL MOUNTAINS

CITY           SKY/WX    TMP DP  RH WIND       PRES   REMARKS
FARMINGTON     CLOUDY    72  47  40 E7        30.20R
LOS ALAMOS     CLEAR     61  51  70 SW9       30.37S
SANTA FE       CLEAR     63  52  67 S12       30.30F
TAOS           PTCLDY    64  46  52 SE12      30.36F
ANGEL FIRE     PTSUNNY   44  40  87 CALM      30.48S

$$
NMZ402-403-502-505>509-211000-
WESTCENTRAL MOUNTAINS/SOUTHWEST MOUNTAINS

CITY           SKY/WX    TMP DP  RH WIND       PRES   REMARKS
GALLUP         CLEAR     57  42  57 NE5       30.28S
GRANTS         CLEAR     54  48  82 S5        30.31S
SILVER CITY    MOCLDY    66  63  88 E8        30.21R

$$
NMZ407-409-411-412-211000-
SOUTHERN DESERTS

CITY           SKY/WX    TMP DP  RH WIND       PRES   REMARKS
LORDSBURG      PTSUNNY   66  64  94 MISG      30.10S
DEMING         PTCLDY    70  64  81 NE9       30.11S
LAS CRUCES     MOCLDY    71  62  74 SE6       30.13S
HOLLOMAN AFB   PTCLDY    67  62  85 CALM      30.11S
ALAMOGORDO     PTCLDY    64  61  88 NE6       30.13S
T OR C         LGT RAIN  66  65  96 NW6       30.16F

$$
NMZ519>523-211000-
CENTRAL VALLEYS/CENTRAL HIGHLANDS

CITY           SKY/WX    TMP DP  RH WIND       PRES   REMARKS
ALBUQUERQUE    PTCLDY    69  57  65 E10       30.23F
DOUBLE EAGLE   CLEAR     67  55  66 E8        30.27S
MORIARTY ARPT  FAIR      54  51  90 CALM      30.33F
CLINES CORNERS CLOUDY    60  57  89 E12       30.34F
BELEN          FAIR      67  57  69 SE7       30.22S
SOCORRO        FAIR      71  58  65 E3        30.19F

$$
NMZ524>526-539-540-211000-
SOUTHCENTRAL MOUNTAINS

CITY           SKY/WX    TMP DP  RH WIND       PRES   REMARKS
RUIDOSO        NOT AVBL

$$
NMZ527>531-211000-
NORTHEAST HIGHLANDS/NORTHEAST PLAINS

CITY           SKY/WX    TMP DP  RH WIND       PRES   REMARKS
LAS VEGAS      MOCLDY    54  48  80 N6        30.37F
RATON          MOCLDY    58  52  80 N7        30.35F
CLAYTON        PTCLDY    62  58  86 N7        30.27F

$$
NMZ532>537-211000-
EASTCENTRAL PLAINS

CITY           SKY/WX    TMP DP  RH WIND       PRES   REMARKS
TUCUMCARI      MOCLDY    63  59  87 CALM      30.19F
CANNON AFB     MOCLDY    66 N/A N/A E5        30.20F
CLOVIS AIRPORT   N/A     66  64  94 SE6       30.22F

$$
NMZ028-029-538-211000-
SOUTHEAST PLAINS

CITY           SKY/WX    TMP DP  RH WIND       PRES   REMARKS
ROSWELL        CLOUDY    71  68  90 NE7       30.13S
CARLSBAD       CLOUDY    72  72 100 CALM      30.07F
HOBBS          CLOUDY    68  68 100 E9        30.14S FOG


$$



USA.gov is the U.S. government's official web portal to all federal, state and local government web resources and services.